Weather History for LFLB - January, 2013

Change the Weather History Date:

Sunday, January 27, 2013

  Actual Average Record
Temperature  
Mean Temperature 31 °F -  
Max Temperature 41 °F 44 °F 51 °F (2002)
Min Temperature 21 °F 31 °F 14 °F (2000)
Degree Days  
Heating Degree Days 34    
Moisture  
Dew Point 26 °F    
Average Humidity 79    
Maximum Humidity 93    
Minimum Humidity 45    
Precipitation  
Precipitation 0.00 in - - ()
Sea Level Pressure  
Sea Level Pressure 29.94 in    
Wind  
Wind Speed 3 mph ()    
Max Wind Speed 9 mph    
Max Gust Speed -    
Visibility 4.3 miles    
Events Rain    
Averages and records for this station are not official NWS values.
T = Trace of Precipitation, MM = Missing Value Source: Averaged Metar Reports

Daily Weather History Graph

Daily Weather History Graph

Search for Another Location

Airport or City:

Trip Planner

Search our weather history database for the weather conditions in past years. The results will help you decide how hot, cold, wet, or windy it might be!

Date:

Astronomy

Jan. 27, 2013 Rise Set
Actual Time 8:03 AM CET 5:35 PM CET
Civil Twilight 7:31 AM CET 6:07 PM CET
Nautical Twilight 6:55 AM CET 6:43 PM CET
Astronomical Twilight 6:20 AM CET 7:18 PM CET
Moon 6:18 PM CET (1/27) 7:43 AM CET (1/27)
Length of Visible Light 10h 36m
Length of Day
9h 32m
Full, 100% of the Moon is Illuminated
Jan 27
Full
Feb 3
Last Quarter
Feb 10
New
Feb 17
First Quarter
Feb 25
Full

Hourly Weather History & Observations

Time (CET) Temp. Windchill Dew Point Humidity Pressure Visibility Wind Dir Wind Speed Gust Speed Precip Events Conditions
12:00 AM 24.8 °F 20.5 °F 23.0 °F 93% 30.06 in - Variable 3.5 mph - N/A   Partly Cloudy
12:30 AM 24.8 °F - 23.0 °F 93% 30.06 in - South 2.3 mph - N/A   Mist
1:00 AM 24.8 °F - 23.0 °F 93% 30.06 in 3.1 mi Calm Calm - N/A   Mist
1:30 AM 24.8 °F - 23.0 °F 93% 30.06 in 3.1 mi Calm Calm - N/A   Mist
2:00 AM 23.0 °F 14.7 °F 21.2 °F 93% 30.06 in 2.5 mi SSE 6.9 mph - N/A   Mist
2:30 AM 24.8 °F 20.5 °F 23.0 °F 93% 30.06 in - SSW 3.5 mph - N/A   Mist
3:00 AM 23.0 °F - 21.2 °F 93% 30.06 in - SE 2.3 mph - N/A   Mist
3:30 AM 23.0 °F - 21.2 °F 93% 30.06 in - SW 1.2 mph - N/A   Mist
4:00 AM 23.0 °F - 21.2 °F 93% 30.06 in - South 2.3 mph - N/A   Mist
4:30 AM 23.0 °F - 21.2 °F 93% 30.06 in - Variable 2.3 mph - N/A   Mist
5:00 AM 23.0 °F - 21.2 °F 93% 30.04 in - Variable 1.2 mph - N/A   Mist
5:30 AM 21.2 °F 14.9 °F 19.4 °F 93% 30.01 in 3.1 mi SSE 4.6 mph - N/A   Mist
6:00 AM 28.4 °F 22.2 °F 23.0 °F 80% 30.01 in 5.0 mi South 5.8 mph - N/A   Unknown
6:30 AM 26.6 °F 22.6 °F 23.0 °F 86% 30.01 in 5.0 mi ESE 3.5 mph - N/A   Unknown
7:00 AM 24.8 °F - 23.0 °F 93% 30.01 in 5.0 mi ESE 2.3 mph - N/A   Unknown
7:30 AM 26.6 °F - 23.0 °F 86% 30.01 in 5.0 mi Variable 2.3 mph - N/A   Unknown
8:00 AM 26.6 °F - 23.0 °F 86% 30.01 in - Variable 2.3 mph - N/A   Clear
8:30 AM 28.4 °F 23.3 °F 24.8 °F 86% 30.01 in - SE 4.6 mph - N/A   Clear
9:00 AM 28.4 °F 21.2 °F 24.8 °F 86% 29.98 in - SSE 6.9 mph - N/A   Clear
9:30 AM 30.2 °F 23.4 °F 24.8 °F 80% 29.98 in - SSE 6.9 mph - N/A   Clear
10:00 AM 33.8 °F 27.7 °F 24.8 °F 70% 29.98 in - SSE 6.9 mph - N/A   Clear
10:30 AM 35.6 °F 31.7 °F 23.0 °F 60% 29.98 in - SE 4.6 mph - N/A   Clear
11:00 AM 37.4 °F 32.8 °F 24.8 °F 60% 29.95 in - SSE 5.8 mph - N/A   Clear
11:30 AM 37.4 °F 30.8 °F 23.0 °F 56% 29.95 in - South 9.2 mph - N/A   Clear
12:00 PM 39.2 °F 35.9 °F 21.2 °F 49% 29.95 in - South 4.6 mph - N/A   Clear
12:24 PM 39.2 °F 37.0 °F 21.2 °F 49% 29.95 in - ESE 3.5 mph - N/A   Clear
1:00 PM 41.0 °F 37.1 °F 21.2 °F 45% 29.92 in - South 5.8 mph - N/A   Clear
1:30 PM 41.0 °F - 21.2 °F 45% 29.95 in - Calm Calm - N/A   Clear
2:00 PM 39.2 °F 37.0 °F 26.6 °F 61% 29.92 in - Variable 3.5 mph - N/A   Clear
3:00 PM 39.2 °F - 24.8 °F 56% 29.89 in 6.2 mi Variable 2.3 mph - N/A   Overcast
3:30 PM 41.0 °F - 24.8 °F 53% 29.86 in 6.2 mi Variable 2.3 mph - N/A   Overcast
4:00 PM 41.0 °F 35.8 °F 23.0 °F 49% 29.86 in 6.2 mi SW 8.1 mph - N/A   Overcast
4:30 PM 41.0 °F 35.8 °F 24.8 °F 53% 29.86 in 6.2 mi SSW 8.1 mph - N/A   Overcast
5:00 PM 39.2 °F 37.0 °F 26.6 °F 61% 29.86 in 6.2 mi Variable 3.5 mph - N/A Rain Rain
5:30 PM 37.4 °F - 28.4 °F 70% 29.86 in 6.2 mi Variable 2.3 mph - N/A Rain Light Rain
6:00 PM 37.4 °F 34.9 °F 28.4 °F 70% 29.86 in 5.6 mi South 3.5 mph - N/A Rain Light Rain
6:30 PM 35.6 °F 31.7 °F 32.0 °F 87% 29.86 in 5.6 mi SE 4.6 mph - N/A Rain Light Rain
7:00 PM 35.6 °F - 32.0 °F 87% 29.83 in 3.1 mi Variable 2.3 mph - N/A Rain Light Rain
7:30 PM 35.6 °F 32.8 °F 32.0 °F 87% 29.83 in 6.2 mi South 3.5 mph - N/A   Overcast
8:00 PM 35.6 °F 31.7 °F 32.0 °F 87% 29.83 in 4.3 mi SSW 4.6 mph - N/A Rain Light Rain
8:30 PM 35.6 °F - 32.0 °F 87% 29.83 in 3.7 mi Variable 1.2 mph - N/A Rain Light Rain
9:00 PM 35.6 °F - 32.0 °F 87% 29.80 in 2.5 mi Calm Calm - N/A Rain Light Rain
9:30 PM 35.6 °F - 33.8 °F 93% 29.80 in 3.7 mi Calm Calm - N/A Rain Light Rain
10:00 PM 35.6 °F - 33.8 °F 93% 29.80 in 1.2 mi Calm Calm - N/A Rain Light Rain
10:30 PM 35.6 °F - 33.8 °F 93% 29.80 in 0.9 mi Calm Calm - N/A Rain Light Rain
11:00 PM 35.6 °F 32.8 °F 33.8 °F 93% 29.83 in - NNE 3.5 mph - N/A Rain Rain
11:30 PM 35.6 °F - 33.8 °F 93% 29.83 in 1.4 mi Variable 2.3 mph - N/A Rain Light Rain